Location: Standeford and Andreas Observatories
(44.1397°N, 93.9969°W)
Time: 05:59:24
(UTC-05:00)

Cosmos 1500 Rocket - Visible Passes

Search period start: 26 May 2017 00:00
Search period end: 05 June 2017 00:00
Orbit: 604 x 631 km, 82.5° (Epoch: 25 May)

Date Brightness Start Highest point End Pass type
(mag) Time Alt. Az. Time Alt. Az. Time Alt. Az.
26 May 5.0 02:21:02 25° ESE 02:22:12 29° E 02:26:01 10° NNE visible
26 May 4.9 03:58:09 20° WSW 04:00:00 26° WNW 04:03:46 10° NNW visible
27 May 4.1 02:37:55 42° SE 02:38:58 52° E 02:43:18 10° NNE visible
27 May 5.5 04:15:03 12° W 04:17:09 16° WNW 04:19:52 10° NNW visible
28 May 3.5 02:54:48 53° SSW 02:55:50 85° W 03:00:18 10° N visible
29 May 5.7 01:34:33 16° E 01:35:22 17° E 01:38:12 10° NE visible
29 May 4.1 03:11:40 37° WSW 03:12:48 46° WNW 03:17:07 10° N visible
30 May 4.9 01:51:24 28° ESE 01:52:04 29° E 01:55:54 10° NNE visible
30 May 4.9 03:28:31 23° WSW 03:29:52 26° WNW 03:33:38 10° NNW visible
31 May 3.9 02:08:15 49° ESE 02:08:50 53° E 02:13:10 10° NNE visible
31 May 5.6 03:45:22 13° W 03:47:01 16° WNW 03:49:44 10° NNW visible
01 Jun 3.4 02:25:04 65° SSW 02:25:42 84° W 02:30:11 10° N visible
02 Jun 5.6 01:04:46 17° E 01:05:14 17° E 01:08:06 10° NE visible
02 Jun 4.1 02:41:53 41° WSW 02:42:40 46° WNW 02:46:59 10° N visible
03 Jun 4.8 01:21:34 29° E 01:21:56 29° E 01:25:47 10° NNE visible
03 Jun 4.9 02:58:42 24° W 02:59:44 26° WNW 03:03:30 10° NNW visible
04 Jun 3.9 01:38:22 52° ESE 01:38:42 53° E 01:43:04 10° NNE visible
04 Jun 5.6 03:15:29 14° W 03:16:54 16° WNW 03:19:35 10° NNW visible
